Location: Harbor View
(36.2448°N, 86.5797°W)
Time: 08:29:48
(UTC+00:00)

COSMO-SKYMED 1 - Pass Details

Date: 07 March 2021
Orbit: 621 x 623 km, 97.9° (Epoch: 13 April)

Event Time Altitude Azimuth Distance (km) Brightness Sun altitude
Rises 10:25:01 0° 144° (SE) 2,891 6.3 -21.6°
Reaches altitude 10° 10:27:21 10° 134° (SE) 1,989 5.6 -21.1°
Maximum altitude 10:31:12 32° 72° (ENE) 1,069 4.4 -20.3°
Drops below altitude 10° 10:35:05 10° 9° (N) 2,000 5.4 -19.6°
Sets 10:37:26 0° 359° (N) 2,911 6.1 -19.1°
